Regional Weather Roundup
Issued by NWS Albany, NY

Home | Current Version | Previous Version | Text Only | Print | Product List | Glossary On
Versions: 1 2 3 4 5 6 7 8 9 10 11 12 13 14 15 16 17 18 19 20 21 22 23 24 25 26 27
000
ASUS41 KALY 210710
RWRALY

NEW YORK STATE HOURLY WEATHER ROUNDUP
NATIONAL WEATHER SERVICE ALBANY NY
200 AM EST TUE NOV 21 2017

NOTE: "FAIR" INDICATES FEW OR NO CLOUDS BELOW 12,000 FEET WITH NO
SIGNIFICANT WEATHER AND/OR NO OBSTRUCTIONS TO VISIBILITY.

NYZ032-033-038>043-046>054-057>066-NYZ062>081-082-084-210800-
EAST


CITY           SKY/WX    TMP DP  RH WIND       PRES   REMARKS
ALBANY         CLEAR     34  25  69 S7        30.04R WCI  28
GLENS FALLS    CLEAR     27  26  96 CALM      30.01S
POUGHKEEPSIE   CLEAR     31  23  72 E3        30.09R
NEWBURGH       CLEAR     36  25  64 CALM      30.09R
MONTGOMERY     CLEAR     27  24  89 CALM      30.07S
WHITE PLAINS   CLEAR     39  22  50 W3        30.10S
ISLIP          CLEAR     40  28  62 SW6       30.13S
NEW YORK CITY  PTCLDY    44  27  51 SW14      30.12S
CENTRAL PARK   CLEAR     43  25  49 VRB6      30.15R
$$

NYZ005>009-017-018-044>046-055-056-210800-
CENTRAL


CITY           SKY/WX    TMP DP  RH WIND       PRES   REMARKS
FULTON         CLEAR     31  24  75 SE3       29.91F
SYRACUSE       PTCLDY    31  23  72 SE3       29.93F
ROME           CLEAR     32  25  75 E9        29.98S WCI  24
ELMIRA         CLEAR     34  23  64 SW3       29.98R
BINGHAMTON     CLEAR     34  21  59 SW10      29.97R WCI  26
MONTICELLO     CLEAR     23  20  88 CALM      30.05S
$$

NYZ026>034-041>043-087-210800-
NORTH


CITY           SKY/WX    TMP DP  RH WIND       PRES   REMARKS
WATERTOWN      CLEAR     37  27  67 S7        29.88S WCI  32
FORT DRUM      NOT AVBL
OGDENSBURG     FAIR      32  31  94 S7        29.86S WCI  26
MASSENA        CLOUDY    27  25  92 E5        29.89F WCI  22
SARANAC LAKE   CLEAR     27  27 100 MISG      29.86S
PLATTSBURGH    CLOUDY    29  24  82 SW3       29.95F
$$

NYZ001>004-010>016-019>021-085-210800-
WEST


CITY           SKY/WX    TMP DP  RH WIND       PRES   REMARKS
NIAGARA FALLS  CLEAR     45  27  49 SW22G31   29.83S
BUFFALO        PTCLDY    39  24  55 S16       29.85F WCI  30
DUNKIRK        CLEAR     40  23  50 S18G26    29.88F WCI  31
JAMESTOWN      CLEAR     34  20  56 S16       29.90F WCI  24
WELLSVILLE     CLEAR     39  19  44 SW12G21   29.94R WCI  32
ROCHESTER      CLEAR     40  25  55 SW20G29   29.87S WCI  30
PENN YAN       CLEAR     39  23  52 S17G24    29.90S WCI  30
$$

             KEY
       WCI = WIND CHILL INDEX
       VSB = VISIBILITY
       HX  = HEAT INDEX
$$




USA.gov is the U.S. government's official web portal to all federal, state and local government web resources and services.